Regional Weather Roundup
Issued by NWS

Home | Current Version | Previous Version | Text Only | Print | Product List | Glossary On
Versions: 1 2 3 4 5 6 7 8 9 10 11 12 13 14 15 16 17 18 19 20 21 22 23 24 25 26 27 28 29 30 31 32 33 34 35 36 37 38 39 40 41 42 43 44 45 46 47 48 49 50
000
ASUS42 KKEY 241410
RWRKEY

FLORIDA REGIONAL WEATHER ROUNDUP FOR THE FLORIDA KEYS
NATIONAL WEATHER SERVICE KEY WEST FLORIDA
1000 AM EDT SAT JUN 24 2017

...SOUTH FLORIDA AND THE KEYS...

CITY           SKY/WX    TMP DP  RH WIND       PRES   REMARKS
FORT MYERS     PTSUNNY   85  76  74 SE5       30.06R HX  94
SW REGIONAL AP PTSUNNY   84  75  74 S8        30.07R HX  92
NAPLES         MOSUNNY   86  76  71 SE8       30.05S HX  96
MIAMI          PTSUNNY   87  73  62 SE14      30.06S HX  94
WEST KENDALL   MOSUNNY   87  73  62 SE13G20   30.06R HX  94
HOMESTEAD      PTSUNNY   86  77  74 E10       30.06S HX  97
MARATHON       SUNNY     87  77  72 SE8G16    30.05R HX  99
BOCA CHICA NAS PTSUNNY   87  77  72 SE12      30.04R HX  99
KEY WEST INTL  SUNNY     86  75  69 SE12      30.05R HX  95

...INTERNATIONAL WEATHER...

CITY           SKY/WX    TMP DP  RH WIND       PRES   REMARKS
NASSAU BAHAMAS PTSUNNY   82  75  78 E10       30.08R
CANCUN MEXICO  PTSUNNY   84  77  79 SE15      29.96R HX  94
COZUMEL MEXICO   N/A    N/A N/A N/A MISG        N/A

ADJACENT COASTAL WATERS...

STATION/POSITION TIME  SKY/WX   TEMP    WIND        PRES    WAVE
                                AIR SEA DIR/SP/G            HT/PER
                 (UTC)          (F)     (DEG/KT/KT) (MB)    (FT/S)
PULASKI SHOAL LI 1400            83     130/ 16/ 17 1017.3R
SAND KEY         1350            83     140/ 13/ 14 1017.8R
LONG KEY         1200            84     150/ 10       N/A
MOLASSES REEF    1300            83 83  130/ 12/ 14 1017.8R
FOWEY ROCKS      1300            82 82  120/ 15/ 17 1018.3R
Buoy 42097       1330               82                N/A     3/ 5

$$



USA.gov is the U.S. government's official web portal to all federal, state and local government web resources and services.